Location: Chuathbaluk
(61.5726°N, 159.2454°W)
Time: 03:24:44
(UTC+00:00)

Transit 2A - Pass Details

Date: 28 November 2020
Orbit: 599 x 960 km, 66.7° (Epoch: 26 January)

Event Time Altitude Azimuth Distance (km) Brightness Sun altitude
Rises 11:13:26 0° 304° (NW) 3,455 - -49.0°
Reaches altitude 10° 11:16:02 10° 304° (NW) 2,462 - -48.9°
Maximum altitude 11:21:41 83° 218° (SW) 789 - -48.7°
Drops below altitude 10° 11:26:45 10° 131° (SE) 2,206 - -48.5°
Sets 11:28:58 0° 131° (SE) 3,070 - -48.4°
